Angel Fire, NM

3:16 PM MST on November 11, 2019 (GMT -0700)
Angel Fire

Weather History for KAXX - June, 2019

Change the Weather History Date:

Sunday, June 9, 2019

  Actual Average (WUND) Record (WUND)
Temperature  
Mean Temperature 48 °F -  
Max Temperature 66 °F - - (-1)
Min Temperature 30 °F - - (-1)
Degree Days  
Heating Degree Days 17    
Moisture  
Dew Point 36 °F    
Average Humidity 62    
Maximum Humidity 89    
Minimum Humidity 43    
Precipitation  
Precipitation 0.00 in - - ()
Sea Level Pressure  
Sea Level Pressure 30.45 in    
Wind  
Wind Speed 5 mph (ESE)    
Max Wind Speed 17 mph    
Max Gust Speed 26 mph    
Visibility 10 miles    
Events      
Averages and records for this station are not official NWS values.
T = Trace of Precipitation, MM = Missing Value Source: NWS Daily Summary

Daily Weather History Graph

Daily Weather History Graph

Search for Another Location

Airport or City:

Astronomy

Jun. 09, 2019 Rise Set
Actual Time 5:42 AM MDT 8:18 PM MDT
Civil Twilight 5:12 AM MDT 8:48 PM MDT
Nautical Twilight 4:34 AM MDT 9:26 PM MDT
Astronomical Twilight 3:53 AM MDT 10:08 PM MDT
Moon 12:18 PM MDT (6/9) 1:05 AM MDT (6/9)
Length of Visible Light 15h 35m
Length of Day
14h 35m
Waxing Crescent, 44% of the Moon is Illuminated
Jun 9
Waxing Crescent
Jun 10
First Quarter
Jun 17
Full
Jun 25
Last Quarter
Jul 2
New

Hourly Weather History & Observations

Time (MDT) Temp. Windchill Dew Point Humidity Pressure Visibility Wind Dir Wind Speed Gust Speed Precip Events Conditions
12:15 AM 39.9 °F - 29.5 °F 66% 30.31 in 10.0 mi Calm Calm - N/A   Unknown
12:35 AM 35.8 °F - 29.3 °F 77% 30.31 in 10.0 mi Calm Calm - N/A   Unknown
12:55 AM 37.6 °F - 28.8 °F 70% 30.32 in 10.0 mi Calm Calm - N/A   Unknown
1:15 AM 34.9 °F 32.0 °F 30.2 °F 83% 30.33 in 10.0 mi West 3.5 mph - N/A   Unknown
1:35 AM 34.3 °F - 28.9 °F 81% 30.33 in 10.0 mi Calm Calm - N/A   Unknown
1:55 AM 35.6 °F - 28.4 °F 75% 30.33 in 10.0 mi Calm Calm - N/A   Unknown
2:15 AM 33.8 °F - 29.8 °F 85% 30.33 in 10.0 mi Calm Calm - N/A   Unknown
2:35 AM 33.8 °F - 28.2 °F 80% 30.32 in 10.0 mi Calm Calm - N/A   Unknown
2:55 AM 32.7 °F 25.0 °F 27.3 °F 81% 30.32 in 10.0 mi NNE 9.2 mph - N/A   Unknown
3:15 AM 35.2 °F - 27.7 °F 74% 30.33 in 10.0 mi Calm Calm - N/A   Unknown
3:35 AM 35.4 °F 31.5 °F 27.3 °F 72% 30.33 in 10.0 mi South 4.6 mph - N/A   Unknown
3:55 AM 33.8 °F 27.0 °F 27.9 °F 79% 30.33 in 10.0 mi NW 8.1 mph - N/A   Unknown
4:15 AM 32.7 °F - 28.0 °F 83% 30.31 in 10.0 mi Calm Calm - N/A   Unknown
4:35 AM 31.3 °F - 27.0 °F 84% 30.32 in 10.0 mi Calm Calm - N/A   Unknown
4:55 AM 30.6 °F 27.1 °F 26.1 °F 83% 30.32 in 10.0 mi SSE 3.5 mph - N/A   Unknown
5:15 AM 30.9 °F - 26.8 °F 85% 30.33 in 10.0 mi Calm Calm - N/A   Unknown
5:35 AM 30.2 °F 26.7 °F 27.3 °F 89% 30.34 in 10.0 mi North 3.5 mph - N/A   Unknown
5:55 AM 31.6 °F 25.1 °F 26.2 °F 80% 30.35 in 10.0 mi South 6.9 mph - N/A   Unknown
6:15 AM 32.0 °F - 27.5 °F 83% 30.36 in 10.0 mi Calm Calm - N/A   Unknown
6:35 AM 36.5 °F - 28.2 °F 72% 30.38 in 10.0 mi Calm Calm - N/A   Unknown
6:55 AM 39.2 °F - 30.9 °F 72% 30.39 in 10.0 mi Calm Calm - N/A   Unknown
7:15 AM 42.8 °F - 31.1 °F 63% 30.40 in 10.0 mi Calm Calm - N/A   Unknown
7:35 AM 46.0 °F - 32.4 °F 59% 30.41 in 10.0 mi Calm Calm - N/A   Unknown
7:55 AM 49.6 °F - 35.4 °F 58% 30.43 in 10.0 mi Calm Calm - N/A   Unknown
8:15 AM 51.4 °F - 37.8 °F 60% 30.44 in 10.0 mi Calm Calm - N/A   Unknown
8:35 AM 53.6 °F - 39.0 °F 58% 30.44 in 10.0 mi Calm Calm - N/A   Unknown
8:55 AM 55.2 °F - 39.6 °F 56% 30.44 in 10.0 mi Calm Calm - N/A   Unknown
9:15 AM 56.1 °F - 41.0 °F 57% 30.45 in 10.0 mi NNE 6.9 mph - N/A   Unknown
9:35 AM 55.9 °F - 41.4 °F 58% 30.45 in 10.0 mi NNE 9.2 mph - N/A   Unknown
9:55 AM 55.6 °F - 41.2 °F 58% 30.44 in 10.0 mi North 12.7 mph 17.3 mph N/A   Unknown
10:15 AM 56.7 °F - 41.5 °F 57% 30.44 in 10.0 mi North 15.0 mph - N/A   Unknown
10:35 AM 56.3 °F - 41.2 °F 57% 30.45 in 10.0 mi North 12.7 mph - N/A   Unknown
10:55 AM 57.4 °F - 40.8 °F 54% 30.44 in 10.0 mi North 11.5 mph - N/A   Unknown
11:15 AM 58.8 °F - 40.3 °F 50% 30.45 in 10.0 mi NE 6.9 mph - N/A   Unknown
11:35 AM 59.9 °F - 41.9 °F 51% 30.44 in 10.0 mi NNE 8.1 mph - N/A   Unknown
11:55 AM 61.0 °F - 42.1 °F 50% 30.44 in 10.0 mi NE 4.6 mph - N/A   Unknown
12:15 PM 63.5 °F - 42.6 °F 47% 30.44 in 10.0 mi SSE 3.5 mph - N/A   Unknown
12:35 PM 65.1 °F - 44.2 °F 47% 30.44 in 10.0 mi South 10.4 mph 18.4 mph N/A   Unknown
12:55 PM 66.2 °F - 44.8 °F 46% 30.44 in 10.0 mi South 12.7 mph 18.4 mph N/A   Unknown
1:15 PM 66.2 °F - 43.0 °F 43% 30.43 in 10.0 mi South 13.8 mph 21.9 mph N/A   Unknown
1:35 PM 66.0 °F - 43.5 °F 44% 30.45 in 10.0 mi ESE 16.1 mph 20.7 mph N/A   Unknown
1:55 PM 65.3 °F - 43.2 °F 45% 30.45 in 10.0 mi SE 11.5 mph 26.5 mph N/A   Unknown
2:15 PM 63.9 °F - 42.6 °F 46% 30.45 in 10.0 mi SE 12.7 mph 23.0 mph N/A   Unknown
2:35 PM 63.9 °F - 43.0 °F 47% 30.46 in 10.0 mi SE 17.3 mph 23.0 mph N/A   Unknown
2:55 PM 61.9 °F - 42.1 °F 48% 30.46 in 10.0 mi ESE 12.7 mph 18.4 mph N/A   Unknown
3:15 PM 62.2 °F - 42.4 °F 48% 30.47 in 10.0 mi SE 11.5 mph 17.3 mph N/A   Unknown
3:35 PM 62.8 °F - 42.3 °F 47% 30.47 in 10.0 mi SE 13.8 mph 23.0 mph N/A   Unknown
3:55 PM 62.1 °F - 42.8 °F 49% 30.47 in 10.0 mi South 8.1 mph - N/A   Unknown
4:15 PM 63.0 °F - 41.7 °F 46% 30.47 in 10.0 mi SSE 6.9 mph 18.4 mph N/A   Unknown
4:55 PM 60.3 °F - 42.3 °F 51% 30.48 in 10.0 mi SE 10.4 mph 17.3 mph N/A   Unknown
5:15 PM 58.6 °F - 42.3 °F 55% 30.50 in 10.0 mi ESE 16.1 mph 23.0 mph N/A   Unknown
5:35 PM 57.4 °F - 41.5 °F 56% 30.50 in 10.0 mi ESE 11.5 mph 19.6 mph N/A   Unknown
5:55 PM 58.5 °F - 41.7 °F 54% 30.50 in 10.0 mi ESE 8.1 mph - N/A   Unknown
6:15 PM 56.5 °F - 41.9 °F 58% 30.51 in 10.0 mi ESE 13.8 mph 17.3 mph N/A   Unknown
6:35 PM 55.4 °F - 41.7 °F 60% 30.51 in 10.0 mi SE 12.7 mph 18.4 mph N/A   Unknown
6:55 PM 53.6 °F - 40.6 °F 62% 30.52 in 10.0 mi East 15.0 mph 18.4 mph N/A   Unknown
7:15 PM 52.9 °F - 40.5 °F 63% 30.53 in 10.0 mi East 11.5 mph 18.4 mph N/A   Unknown
7:35 PM 52.7 °F - 40.1 °F 62% 30.54 in 10.0 mi ESE 11.5 mph 17.3 mph N/A   Unknown
7:55 PM 52.0 °F - 39.7 °F 63% 30.55 in 10.0 mi ESE 13.8 mph 21.9 mph N/A   Unknown
8:15 PM 51.4 °F - 39.7 °F 64% 30.55 in 10.0 mi East 17.3 mph 21.9 mph N/A   Unknown
8:35 PM 50.9 °F - 38.7 °F 63% 30.56 in 10.0 mi ESE 15.0 mph 20.7 mph N/A   Unknown
8:55 PM 50.0 °F - 37.2 °F 62% 30.56 in 10.0 mi ESE 17.3 mph 23.0 mph N/A   Unknown
9:15 PM 49.5 °F - 36.5 °F 61% 30.58 in 10.0 mi ESE 13.8 mph 18.4 mph N/A   Unknown
9:35 PM 48.9 °F - 36.3 °F 62% 30.58 in 10.0 mi ESE 11.5 mph 20.7 mph N/A   Unknown
9:55 PM 48.6 °F - 35.6 °F 61% 30.59 in 10.0 mi East 12.7 mph 19.6 mph N/A   Unknown
10:15 PM 48.2 °F - 35.1 °F 60% 30.60 in 10.0 mi ESE 15.0 mph 20.7 mph N/A   Unknown
10:35 PM 47.8 °F - 34.5 °F 60% 30.61 in 10.0 mi ESE 10.4 mph 18.4 mph N/A   Unknown
10:55 PM 47.7 °F - 34.2 °F 60% 30.62 in 10.0 mi ESE 12.7 mph 18.4 mph N/A   Unknown
11:15 PM 47.3 °F - 34.0 °F 60% 30.62 in 10.0 mi East 9.2 mph 17.3 mph N/A   Unknown
11:35 PM 46.9 °F - 32.5 °F 57% 30.62 in 10.0 mi ESE 8.1 mph 20.7 mph N/A   Unknown
11:55 PM 46.8 °F - 32.0 °F 57% 30.62 in 10.0 mi ESE 12.7 mph - N/A   Unknown